Simultaneous Nadir Overpasses (SNOs) Predictions

Prediction of SNOs between AQUA and NOAA-19 Satellite Orbit:

Table of predicted SNOs for the next 14.0 days since TLE Epoch: 2/4/2023
Index Date (AQUA) Time (AQUA) Lat,Lon (AQUA) SZA (AQUA ) Date (NOAA-19) Time (NOAA-19) Lat,Lon (NOAA-19) SZA (NOAA-19 ) Distance(km) Time Diff (sec)
1 02/04/2023 13:08:49 76.84, -29.29 93.43 02/04/2023 13:08:19 76.82, -29.29 93.42 1.95 30
2 02/04/2023 13:58:14 -76.86, 138.29 86.57 02/04/2023 13:59:16 -76.87, 138.20 86.56 2.99 62
3 02/06/2023 18:41:21 -76.85, 67.57 87.24 02/06/2023 18:40:59 -76.82, 67.60 87.27 3.22 22
4 02/06/2023 19:30:48 76.88,-124.92 92.79 02/06/2023 19:31:59 76.89,-124.85 92.78 1.89 71
5 02/09/2023 00:13:53 76.81, 164.60 92.01 02/09/2023 00:13:43 76.80, 164.43 92.03 4.21 10
6 02/09/2023 01:03:24 -77.10, -28.86 87.65 02/09/2023 01:04:33 -77.11, -26.95 87.77 47.37 69
7 02/11/2023 05:46:24 -76.82, -98.58 88.69 02/11/2023 05:46:21 -76.83, -98.53 88.68 1.60 3
8 02/13/2023 10:29:20 -76.38,-167.79 89.94 02/13/2023 10:28:14 -76.33,-170.94 89.77 82.86 66
9 02/13/2023 11:18:55 76.80, -1.61 90.55 02/13/2023 11:19:05 76.84, -1.61 90.58 4.42 10
10 02/15/2023 16:01:59 76.77, -72.24 89.76 02/15/2023 16:00:48 76.78, -72.24 89.79 0.90 71
11 02/15/2023 16:51:25 -76.83, 95.19 90.19 02/15/2023 16:51:43 -76.83, 95.25 90.20 1.39 18
12 02/17/2023 21:34:28 -76.78, 24.63 91.01 02/17/2023 21:33:25 -76.79, 24.72 90.99 2.41 63



Historial Predications of SNOs between AQUA and NOAA-19
